User: anonymous   Login
Location: Unspecified
(67.4364°N, 0.0000°E)
Time: 14:40:30
(UTC+00:00)
Language:

Cosmos 480 Rocket - Orbit

View from above orbital plane
View from above orbital plane
View from above satellite
View from above satellite

Ground track
Ground track

The orbit is defined by the following mean orbital elements,

1 05907U          26088.09085420 +.00000000 +00000-0 +32419-3 0 00008
2 05907  82.9671 293.6641 0021867  59.4983  55.1308 13.22468762    02
Epoch (UTC): 29 March 2026 02:10:49
Eccentricity: 0.0021867
inclination: 82.9671°
perigee height: 1159 km
apogee height: 1192 km
right ascension of ascending node: 293.6641°
argument of perigee: 59.4983°
revolutions per day: 13.22468762
mean anomaly at epoch: 55.1308°

The dashed part of the orbit path shows where the satellite is in the earth's shadow,  

DLR